Flag for Canada

Past Weather in Clyde River, Nunavut, Canada — Yesterday and Last 2 Weeks

Now
23 °F

Sunny.


Feels Like: 16 °F
Forecast: 29 / 21 °F
Wind: 6 mph from Northwest

Location: Clyde
Current Time: Oct 21, 2020 at 3:45:04 pm
Latest Report: Oct 21, 2020 at 2:00 pm
Visibility: 9 mi
Pressure29.76 "Hg
Humidity: 68%
Dew Point: 14 °F
Location of Clyde RiverLocation

Past Weather in Clyde River — Graph

°F

Clyde River Temperature Yesterday

Maximum temperature yesterday: 32 °F (at 12:23 am)
Minimum temperature yesterday: 27 °F (at 10:00 pm)
Average temperature yesterday: 30 °F

High & Low Weather Summary for the Past Weeks

 TemperatureHumidityPressure
High39 °F (Oct 17, 12:00 pm)100% (Oct 7, 11:16 am)30.31 "Hg (Oct 7, 11:16 am)
Low12 °F (Oct 14, 8:00 am)64% (Oct 20, 11:00 am)29.31 "Hg (Oct 19, 4:04 am)
Average30 °F93%29.83 "Hg
* Reported Oct 6 2:00 pm — Oct 21 2:00 pm, Clyde River. Weather by CustomWeather, © 2020

Note: Actual official high and low records may vary slightly from our data, if they occured in-between our weather recording intervals... More about our weather records

Clyde River Weather History for the Previous 24 Hours

Scroll right to see more
 ConditionsComfort  
Time TempWeatherWind HumidityBarometerVisibility
2:00 pm
Wed, Oct 21
23 °FSunny.6 mph68%29.76 "Hg9 mi
1:00 pm27 °FPassing clouds.3 mph69%29.76 "Hg9 mi
12:00 pm27 °FOvercast.5 mph74%29.75 "Hg9 mi
11:00 am27 °FOvercast.5 mph74%29.74 "Hg9 mi
10:00 am27 °FOvercast.5 mph80%29.74 "Hg9 mi
9:00 am27 °FOvercast.12 mph80%29.72 "Hg9 mi
8:00 am27 °FPassing clouds.6 mph74%29.71 "Hg9 mi
7:00 am28 °FOvercast.7 mph74%29.70 "Hg9 mi
6:00 am28 °FOvercast.8 mph80%29.69 "Hg9 mi
5:00 am28 °FOvercast.8 mph80%29.68 "Hg9 mi
4:00 am28 °FOvercast.2 mph74%29.67 "Hg9 mi
3:00 am30 °FOvercast.13 mph75%29.65 "Hg9 mi
2:16 am28 °FOvercast.13 mph80%29.64 "Hg9 mi
1:43 am28 °FOvercast.14 mph80%29.63 "Hg9 mi
1:00 am27 °FOvercast.2 mph80%29.63 "Hg9 mi
12:00 am28 °FPassing clouds.9 mph74%29.62 "Hg9 mi
11:00 pm
Tue, Oct 20
28 °FClear.15 mph74%29.60 "Hg9 mi
10:00 pm27 °FPassing clouds.10 mph80%29.59 "Hg9 mi
9:00 pm28 °FPassing clouds.14 mph74%29.58 "Hg9 mi
8:00 pm28 °FPassing clouds.14 mph74%29.56 "Hg9 mi
7:00 pm28 °FPassing clouds.14 mph80%29.55 "Hg9 mi
6:00 pm28 °FPassing clouds.15 mph74%29.54 "Hg9 mi
5:00 pm30 °FOvercast.12 mph75%29.53 "Hg9 mi
4:00 pm30 °FOvercast.16 mph75%29.52 "Hg9 mi
3:00 pm30 °FSunny.17 mph75%29.50 "Hg9 mi
Weather by CustomWeather, © 2020

See weather overview